Weather History for Osaka Airport, Japan

Change the Weather History Date:

Wednesday, March 13, 2013

  Actual Average Record
Temperature  
Mean Temperature 59 °F -  
Max Temperature 68 °F 60 °F 68 °F (2013)
Min Temperature 50 °F 42 °F 30 °F (2003)
Degree Days  
Heating Degree Days 6    
Growing Degree Days 9 (Base 50)    
Moisture  
Dew Point 50 °F    
Average Humidity 74    
Maximum Humidity 94    
Minimum Humidity 46    
Precipitation  
Precipitation 0.00 in - - ()
Sea Level Pressure  
Sea Level Pressure 29.76 in    
Wind  
Wind Speed 7 mph ()    
Max Wind Speed 26 mph    
Max Gust Speed 34 mph    
Visibility 4.7 miles    
Events Rain    
Averages and records for this station are not official NWS values.
T = Trace of Precipitation, MM = Missing Value Source: Averaged Metar Reports

Daily Weather History Graph

Daily Weather History Graph

Search for Another Location

Airport:

Trip Planner

Search our weather history database for the weather conditions in past years. The results will help you decide how hot, cold, wet, or windy it might be!

Date:

Astronomy

Mar. 13, 2013 Rise Set
Actual Time 6:12 AM JST 6:03 PM JST
Civil Twilight 5:46 AM JST 6:29 PM JST
Nautical Twilight 5:17 AM JST 6:58 PM JST
Astronomical Twilight 4:48 AM JST 7:27 PM JST
Moon 6:35 AM JST (3/13) 7:36 PM JST (3/13)
Length of Visible Light 12h 42m
Length of Day
11h 51m
New Moon, 2% of the Moon is Illuminated
Mar 13
New Moon
Mar 20
First Quarter
Mar 27
Full
Apr 3
Last Quarter
Apr 10
New

Hourly Weather History & Observations

Time (JST) Temp. Dew Point Humidity Pressure Visibility Wind Dir Wind Speed Gust Speed Precip Events Conditions
5:00 AM 50.0 °F 35.6 °F 58% 29.95 in 6.2 mi East 9.2 mph - N/A   Scattered Clouds
6:00 AM 50.0 °F 37.4 °F 62% 29.92 in 6.2 mi East 4.6 mph - N/A   Scattered Clouds
7:00 AM 51.8 °F 39.2 °F 62% 29.92 in 6.2 mi East 4.6 mph - N/A   Scattered Clouds
8:00 AM 55.4 °F 39.2 °F 54% 29.92 in 6.2 mi ESE 6.9 mph - N/A   Partly Cloudy
9:00 AM 57.2 °F 39.2 °F 51% 29.92 in 6.2 mi ESE 8.1 mph - N/A   Partly Cloudy
10:00 AM 62.6 °F 42.8 °F 48% 29.89 in 6.2 mi Variable 2.3 mph - N/A   Scattered Clouds
11:00 AM 66.2 °F 46.4 °F 49% 29.86 in 6.2 mi SW 10.4 mph - N/A   Partly Cloudy
12:00 PM 68.0 °F 46.4 °F 46% 29.83 in 6.2 mi SW 12.7 mph 24.2 mph N/A   Scattered Clouds
1:00 PM 64.4 °F 50.0 °F 59% 29.77 in 6.2 mi WSW 12.7 mph - N/A Rain Light Rain Showers
2:00 PM 64.4 °F 48.2 °F 56% 29.71 in 6.2 mi WSW 10.4 mph - N/A   Mostly Cloudy
3:00 PM 64.4 °F 50.0 °F 59% 29.68 in 6.2 mi WSW 8.1 mph - N/A   Mostly Cloudy
3:31 PM 62.6 °F 53.6 °F 72% 29.68 in 2.2 mi West 5.8 mph - N/A Rain Rain Showers
3:48 PM 60.8 °F 55.4 °F 82% 29.68 in 4.3 mi West 5.8 mph - N/A Rain Rain Showers
4:00 PM 60.8 °F 55.4 °F 82% 29.68 in 3.7 mi WSW 4.6 mph - N/A Rain Light Rain Showers
4:08 PM 60.8 °F 57.2 °F 88% 29.68 in 1.9 mi WSW 4.6 mph - N/A Rain Rain Showers
4:23 PM 60.8 °F 57.2 °F 88% 29.68 in 3.1 mi WSW 6.9 mph - N/A Rain Rain Showers
4:35 PM 60.8 °F 57.2 °F 88% 29.68 in 2.8 mi WSW 5.8 mph - N/A Rain Rain Showers
4:48 PM 60.8 °F 57.2 °F 88% 29.68 in 2.5 mi WSW 4.6 mph - N/A Rain Rain Showers
5:00 PM 60.8 °F 59.0 °F 94% 29.68 in 2.5 mi WSW 3.5 mph - N/A Rain Rain Showers
5:28 PM 60.8 °F 59.0 °F 94% 29.68 in 1.9 mi WSW 4.6 mph - N/A Rain Rain Showers
5:37 PM 60.8 °F 59.0 °F 94% 29.68 in 2.5 mi WSW 5.8 mph - N/A Rain Rain Showers
6:00 PM 62.6 °F 60.8 °F 94% 29.68 in 3.1 mi WSW 9.2 mph - N/A Rain Light Rain Showers
6:43 PM 62.6 °F 60.8 °F 94% 29.68 in 4.3 mi WSW 9.2 mph - N/A Rain Light Rain Showers
7:00 PM 55.4 °F 51.8 °F 88% 29.71 in 6.2 mi NNW 26.5 mph - N/A Rain Light Rain Showers
7:17 PM 55.4 °F 50.0 °F 82% 29.71 in 6.2 mi NNW 23.0 mph 34.5 mph N/A Rain Light Rain Showers
8:00 PM 51.8 °F 46.4 °F 82% 29.77 in 6.2 mi NNW 15.0 mph - N/A Rain Light Rain Showers
8:32 PM 50.0 °F 42.8 °F 76% 29.80 in 6.2 mi North 18.4 mph 32.2 mph N/A Rain Light Rain Showers